Weather in Noshul

Russia / Komi Republic     60°08′52″N   49°29′58″E
temp.,
°C
wind,
m/s
gust,
m/s
humid.,
%
clouds,
%
prec.,
mm/h
press.,
hPa
HPBL,
m
12 april, mon
mon1200:000wsw29952 0.0 1032168
03:00−2wsw27945 0.0 1035132
06:00−1wsw27915 0.0 1037157
09:00+6w25665 0.0 1038506
12:00+9w24465 0.0 10391103
15:00+10sw23475 0.0 10391209
18:00+5ssw238129 0.0 103952
21:00+2s27879 0.0 1039117
13 april, tue
tue1300:00+1s2109037 0.0 1038176
03:000s2989100 0.0 1038186
06:00+1s31186100 0.0 1036267
09:00+6s41186100 0.0 1034448
12:00+10ssw5979100 0.0 1032628
15:00+12ssw41280100 0.0 1029723
18:00+11ssw41189100 0.0 1028522
21:00+9ssw41495100 0.0 1028500
14 april, wed
wed1400:00+9ssw31295100 0.0 1027424
03:00+7ssw31096100 0.0 1027245
06:00+7ssw3108982 0.0 1026269
09:00+13sw496347 0.0 1025438
12:00+17sw594999 0.0 10241085
15:00+17ssw485081 0.0 10231170
18:00+14ssw4106252 0.0 1022431
21:00+10ssw4137657 0.0 1022387
15 april, thu
thu1500:00+8ssw4137599 0.0 1021390
03:00+7ssw3118129 0.0 1020282
06:00+7sw3117850 0.0 1019320
09:00+13wsw365780 0.0 1018613
12:00+14nw455799 0.0 10181136
15:00+6n4783100 0.0 1021537
18:00+4nne3794100 0.8 1022480
21:00+4nne2587100 0.8 1023402
16 april, fri
fri1600:00+3nne2593100 0.0 1023221
03:00+1nne2890100 0.0 1024244
06:00+1nne27780 0.0 1025259
09:00+5ne35525 0.0 10261283
12:00+7nne4639100 0.0 10262259
15:00+7nne464298 0.0 10271863
18:00+5nne365569 0.1 1028464
21:00+1n22785 0.1 102927